Regional Weather Roundup
Issued by NWS

Home | Current Version | Previous Version | Text Only | Print | Product List | Glossary On
Versions: 1 2 3 4 5 6 7 8 9 10 11 12 13 14 15 16 17 18 19 20 21 22 23 24 25 26 27 28 29 30 31 32 33 34 35 36 37 38 39 40 41 42 43 44 45 46 47 48 49 50
000
ASUS43 KLMK 231102
RWRKY
KENTUCKY REGIONAL WEATHER ROUNDUP
NATIONAL WEATHER SERVICE LOUISVILLE KY
600 AM EST SUN NOV 23 2014

NOTE "FAIR" INDICATES FEW OR NO CLOUDS BELOW 12,000 FEET
WITH NO SIGNIFICANT WEATHER AND/OR OBSTRUCTIONS TO VISIBILITY.

KYZ001>023-026-027-061>063-070>075-231200-
WESTERN AND SOUTH CENTRAL KENTUCKY

CITY           SKY/WX    TMP DP  RH WIND       PRES   REMARKS
PADUCAH        CLOUDY    55  46  71 SE8       29.85F
HENDERSON      MOCLDY    52  39  62 SE13      29.89R
OWENSBORO      CLOUDY    55  40  57 MISG      29.94R
HOPKINSVILLE   MOCLDY    52  42  67 E7        29.91F
BOWLING GREEN  CLOUDY    50  38  63 NE5       29.97R
GLASGOW        NOT AVBL
$$

KYZ024-025-028>034-038-045-046-053-231200-
NORTH CENTRAL KENTUCKY

CITY           SKY/WX    TMP DP  RH WIND       PRES   REMARKS
LOUISVILLE/SDF CLOUDY    54  38  54 SE7       29.96F
LOUISVILLE/LOU CLOUDY    54  38  54 SE3       29.96F
FORT KNOX      CLOUDY    53  38  55 SE6       29.96R
$$

KYZ035>037-039>044-047>052-055>060-089>105-231200-
NORTHEAST KENTUCKY

CITY           SKY/WX    TMP DP  RH WIND       PRES   REMARKS
LEXINGTON      MOCLDY    51  38  60 S8        30.01F
COVINGTON      CLOUDY    50  38  63 S10       29.99F
FRANKFORT      MOCLDY    50  39  66 SE5       29.98F
$$

KYZ054-064>069-076>088-106>120-231200-
SOUTHEAST KENTUCKY

CITY           SKY/WX    TMP DP  RH WIND       PRES   REMARKS
JACKSON        MOCLDY    50  30  46 E3        30.05F
LONDON         PTCLDY    48  33  56 SE3       30.04F
SOMERSET       NOT AVBL
MIDDLESBORO    PTCLDY    38  33  82 SW3       30.10F
MONTICELLO     CLOUDY    57  43  59 S15G21    30.02F
$$



USA.gov is the U.S. government's official web portal to all federal, state and local government web resources and services.